STARLINK-1331 (45578 NORAD) Tracking and Keplerian Element Data

This shows tracking and keplerian element data for the satellite.

Feedback or suggestion? Click here.




ElementValue
Catalog45578
NameSTARLINK-1331
Epoch Orbit181
Epoch Day189.91668981
Epoch Year2020
RAAN25.4252
Inclination52.9969
Eccentricity0.0001687
Argument of Perigee37.8687
Mean Anonmoly223.3221
Mean Motion15.62738248
Decay Rate0.0003619
L11 45578U 20025AZ 20189.91668981 .00036190 00000-0 39952-3 0 9996
L22 45578 52.9969 25.4252 0001687 37.8687 223.3221 15.62738248 1813

Live tracking and technical data element details for STARLINK-1331 (NORAD 45578). STARLINK-1331 can be tracked NOW for your location showing map with azimuth and elevation plus other details from your city location.

Track the satellite on the map from your city or location and see movement details for azimuth, elevation, latitude, longitude, range, height, and movement on the map or in text.







IsCatalogInMostPopularTable: catalog: 45578, numindb: 23
Update: records affected: 1



GetName: 45578 STARLINK-1331

Hit Count: updated at: Fri, 10 Jul 2020 02:59:43 GMT